Flag for Germany Weather past 2 weeks in Koblenz, Rhineland-Palatinate, Germany

Now
39 °F

Light rain. Partly cloudy.


Feels Like: 31 °F
Forecast: 45 / 55 °F
Wind: 15 mph from Northwest

Location: Buechel

Current Time: Oct 22, 2014 at 9:11:37 AM

Latest Report: Oct 22, 2014 at 8:20 AM


Visibility: N/A

Pressure: 29.98 "Hg

Humidity: 87%

Dew point: 36 °F

Location of KoblenzLocation

Historic Weather in Koblenz — Graph

°F

Koblenz temperature yesterday

Maximum temperature yesterday: 50 °F (at 11:20 AM)
Minimum temperature yesterday: 41 °F (at 8:20 PM)
Average temperature yesterday: 47 °F

Past Weeks' High & Low Weather Summary

 TemperatureHumidityPressure
High66 °F (Oct 18, 3:20 PM)100% (Oct 7, 8:20 AM)30.15 "Hg (Oct 7, 8:20 AM)
Low37 °F (Oct 22, 5:20 AM)63% (Oct 15, 3:20 PM)29.56 "Hg (Oct 7, 8:45 AM)
Average53 °F92%29.87 "Hg
* Reported Oct 7 7:20 AM — Oct 22 7:20 AM, Koblenz, Weather by CustomWeather, © 2014

Note: Actual official high and low records may vary slightly from our data, if they occured in-between our weather recording intervals... More about our weather records

Advertising

Koblenz weather history for previous 24 hours

 ConditionsComfort  
Time TempWeatherWind HumidityBarometerVisibility
7:20 AM
Oct 22
39 °FPartly cloudy.14 mph93%29.95 "Hg6 mi
6:20 AM39 °FPartly cloudy.12 mph93%29.95 "Hg5 mi
5:20 AM37 °FPassing clouds.12 mph93%29.92 "Hg4 mi
4:20 AM41 °FLight rain. Fog.15 mph87%29.92 "Hg3 mi
3:20 AM41 °FQuite cool.12 mph81%29.92 "HgN/A
2:20 AM43 °FQuite cool.15 mph76%29.89 "HgN/A
1:20 AM43 °FQuite cool.13 mph76%29.89 "HgN/A
12:20 AM43 °FQuite cool.14 mph81%29.86 "Hg4 mi
11:20 PM
Oct 21
41 °FQuite cool.15 mph87%29.80 "HgN/A
10:20 PM41 °FQuite cool.17 mph81%29.77 "Hg3 mi
9:20 PM41 °FQuite cool.15 mph87%29.77 "HgN/A
8:20 PM41 °FQuite cool.14 mph93%29.71 "HgN/A
7:20 PM45 °FQuite cool.18 mph81%29.68 "HgN/A
6:20 PM46 °FCool.14 mph82%29.62 "HgN/A
5:20 PM48 °FBroken clouds.18 mph82%29.59 "HgN/A
4:48 PM50 °FFog.15 mph100%29.56 "Hg3 mi
4:20 PM50 °FDrizzle. Fog.15 mph100%29.56 "Hg2 mi
3:20 PM50 °FDrizzle. Fog.16 mph94%29.62 "Hg2 mi
2:20 PM48 °FDrizzle. Fog.15 mph94%29.68 "Hg1 mi
1:20 PM50 °FPartly sunny.20 mph82%29.71 "HgN/A
12:20 PM50 °FBroken clouds.17 mph88%29.74 "HgN/A
11:20 AM50 °FBroken clouds.15 mph88%29.80 "HgN/A
10:20 AM48 °FBroken clouds.13 mph94%29.83 "HgN/A
9:20 AM48 °FPartly sunny.14 mph94%29.83 "Hg5 mi
Weather by CustomWeather, © 2014

See weather overviewHow to use our weather pages